Total_Precipitation_Accumulation
0.98 1.12 1.45 1.38 1.31 1.17 1.01 1.03 1.04 1.00 1.06 1.02 0.94 0.88 0.88 0.93 0.98 1.12 1.20 1.30 1.41 1.46 1.51 1.56 1.60 1.64 1.65 1.63 1.73 1.73 1.66 1.59 1.62 1.71 1.74 1.71 1.82 2.01 2.33 2.52 2.37 1.66 1.53
0.58 0.76 1.19 1.19 1.05 1.02 0.95 0.98 0.97 0.93 0.94 0.91 0.85 0.86 0.90 0.89 0.89 1.07 1.20 1.28 1.36 1.49 1.46 1.48 1.53 1.57 1.56 1.55 1.60 1.66 1.60 1.68 1.87 2.19 2.28 2.06 2.20 2.24 2.27 2.19 2.24 1.65 1.59
0.41 0.52 0.76 1.01 0.90 0.91 0.95 0.93 0.93 0.84 0.82 0.82 0.84 0.89 0.94 0.96 0.98 1.02 1.08 1.13 1.30 1.41 1.37 1.33 1.40 1.42 1.44 1.55 1.53 1.54 1.60 1.84 2.21 2.74 3.02 2.24 1.77 2.13 2.09 1.97 1.86 1.53 1.42
0.40 0.37 0.40 0.73 0.86 0.90 0.92 0.89 0.88 0.84 0.83 0.82 0.92 0.92 0.95 1.04 1.12 1.16 1.08 1.08 1.17 1.25 1.27 1.30 1.21 1.35 1.36 1.40 1.45 1.56 1.68 1.88 2.36 2.87 2.86 1.92 1.33 1.62 1.75 1.58 1.53 1.42 1.39
0.38 0.32 0.43 0.66 0.74 0.78 0.87 0.86 0.80 0.84 0.94 0.98 0.97 0.86 0.93 0.97 1.12 1.18 1.14 1.15 1.17 1.24 1.29 1.36 1.25 1.35 1.31 1.38 1.45 1.56 1.74 1.97 2.35 2.41 1.92 1.95 1.89 1.68 1.44 1.36 1.47 1.56 1.39
0.48 0.39 0.48 0.70 0.70 0.73 0.81 0.82 0.82 0.92 1.04 1.03 0.98 0.92 0.96 0.99 1.10 1.07 1.07 1.15 1.14 1.27 1.35 1.43 1.35 1.38 1.38 1.40 1.44 1.53 1.69 1.96 2.01 1.48 1.29 1.60 1.72 1.71 1.53 1.53 1.54 1.48 1.30
0.59 0.61 0.65 0.81 0.77 0.75 0.78 0.87 0.93 0.98 1.05 1.10 1.02 0.93 0.95 0.96 1.04 1.02 1.02 1.06 1.06 1.23 1.33 1.42 1.44 1.44 1.47 1.59 1.60 1.64 1.73 1.87 1.59 1.20 1.23 1.56 1.63 1.62 1.78 1.87 1.71 1.47 1.23
0.95 0.97 0.99 1.02 0.95 0.92 0.90 1.02 1.11 1.03 1.01 1.06 1.01 0.95 0.91 0.96 0.98 0.94 0.96 0.98 0.98 1.13 1.25 1.36 1.49 1.46 1.48 1.60 1.56 1.51 1.61 1.50 1.14 1.14 1.26 1.43 1.36 1.48 1.83 2.01 1.87 1.71 1.44
1.33 1.32 1.17 1.06 1.01 1.05 1.17 1.25 1.16 1.02 1.02 1.06 1.05 0.96 0.92 0.94 0.86 0.80 0.88 0.99 0.98 1.09 1.21 1.36 1.45 1.45 1.43 1.54 1.50 1.45 1.56 1.50 1.21 1.34 1.27 1.37 1.31 1.50 1.70 1.85 1.77 1.68 1.49
1.71 1.55 1.30 1.12 1.11 1.01 1.04 1.15 1.11 1.01 1.07 1.09 1.08 1.05 1.07 1.02 0.93 0.95 0.95 1.10 1.08 1.15 1.18 1.28 1.40 1.43 1.44 1.53 1.50 1.52 1.58 1.46 1.23 1.38 1.54 1.34 1.40 1.66 1.79 1.75 1.78 1.77 1.58
2.10 1.69 1.33 1.23 1.29 1.21 1.09 1.04 1.29 1.23 1.24 1.26 1.33 1.34 1.50 1.71 1.44 1.40 1.16 1.33 1.34 1.41 1.43 1.51 1.60 1.67 1.75 1.68 1.67 1.70 1.54 1.36 1.46 1.63 1.90 1.52 1.52 1.83 2.03 1.99 1.85 1.74 1.61
2.10 2.05 1.71 1.45 1.36 1.39 1.27 1.35 1.82 1.78 1.71 1.87 1.93 1.87 2.23 2.19 1.95 1.41 1.38 1.74 1.75 1.86 1.99 2.22 2.38 2.13 1.93 1.83 1.97 2.26 1.70 1.46 1.59 1.66 1.78 1.60 1.72 2.14 2.38 2.25 1.94 1.67 1.57
2.06 1.97 2.02 1.84 1.66 1.65 1.79 1.72 1.92 2.17 2.19 2.23 2.16 2.22 2.46 2.09 1.78 1.60 1.82 2.21 2.25 2.31 2.42 2.63 2.76 2.22 2.25 2.65 2.66 2.47 2.19 1.97 1.92 2.03 2.06 2.07 2.18 2.53 2.72 2.56 2.31 1.98 1.70
2.32 2.21 2.47 2.39 2.28 2.29 2.13 2.11 1.96 1.95 1.97 2.04 2.15 2.09 2.24 2.28 2.17 2.17 2.29 2.37 2.51 2.71 3.00 2.81 2.94 2.92 3.00 2.86 2.79 2.80 2.70 2.54 2.39 2.56 2.88 2.72 2.65 2.76 3.04 2.88 2.56 2.37 2.15
2.78 2.85 2.99 3.03 3.13 2.95 2.68 2.47 2.05 2.05 1.97 1.91 1.96 1.94 2.14 2.43 2.48 2.62 2.41 2.50 2.28 2.41 2.79 3.09 3.10 3.30 3.47 3.33 2.90 2.65 2.66 2.60 2.41 2.41 2.66 2.90 2.94 2.88 3.03 3.08 2.77 2.60 2.52
3.40 3.62 3.59 3.61 3.64 3.46 3.04 2.77 2.45 2.13 2.17 1.97 1.94 2.00 2.45 2.70 2.69 2.78 2.64 2.61 2.34 2.36 2.69 3.06 3.11 3.43 3.50 3.51 2.98 2.60 2.55 2.51 2.25 2.15 2.29 2.76 2.79 2.69 2.75 3.01 3.06 2.98 2.88
4.09 4.28 4.47 4.36 4.05 4.11 3.74 2.99 2.46 2.18 2.02 2.12 2.24 2.29 2.53 2.68 2.90 3.07 2.98 2.62 2.40 2.51 2.73 2.77 2.92 3.42 3.30 3.25 3.09 2.96 2.88 2.66 2.36 2.29 2.23 2.41 2.33 2.44 2.60 2.73 2.93 3.16 3.27
4.64 5.07 5.27 4.87 4.76 4.76 4.40 3.78 3.20 2.86 2.68 2.69 2.66 2.45 2.25 2.46 2.61 2.85 2.62 2.26 2.33 2.55 2.74 2.75 2.78 3.18 3.34 3.36 3.38 3.17 3.00 2.77 2.36 2.23 2.20 2.15 2.16 1.96 2.22 2.48 2.77 3.07 3.46
4.94 5.65 6.05 6.23 5.74 5.33 4.74 4.27 3.74 3.42 3.21 2.94 2.65 2.37 2.07 1.87 1.80 2.09 2.08 2.03 2.03 2.29 2.35 2.07 2.34 2.69 2.93 3.05 2.83 2.67 2.33 2.10 1.96 1.84 1.82 1.73 1.93 2.08 2.20 2.17 2.49 2.77 3.30
5.04 5.75 6.17 6.38 5.84 5.11 4.77 4.73 4.37 3.78 3.36 2.97 2.57 2.31 1.94 1.78 1.58 1.83 1.87 1.72 1.69 1.86 1.94 2.09 2.41 2.51 2.43 2.48 2.16 2.07 1.99 1.79 1.74 1.69 1.52 1.54 1.70 1.71 1.89 2.09 2.38 2.19 2.67
5.38 6.05 6.19 5.90 5.18 4.66 4.25 4.00 3.70 3.43 3.15 2.67 2.24 1.97 1.85 1.77 1.70 1.90 1.74 1.76 1.66 1.68 1.72 1.80 2.05 2.14 1.93 2.09 2.38 2.16 1.83 1.57 1.57 1.50 1.44 1.56 1.62 1.71 1.86 2.21 2.44 2.46 2.25
4.96 5.32 5.41 5.01 4.25 3.75 3.48 3.41 3.12 2.90 2.56 2.35 2.11 2.06 1.76 1.70 1.69 1.59 1.75 1.57 1.51 1.69 1.66 1.72 1.95 1.97 1.74 1.87 2.21 2.32 2.04 1.93 1.58 1.14 1.35 1.46 1.52 1.81 1.90 1.91 2.16 2.57 2.54
4.44 4.21 3.92 3.73 3.33 3.20 3.14 2.95 2.73 2.67 2.37 2.19 1.99 1.90 1.62 1.45 1.43 1.46 1.45 1.36 1.45 1.37 1.53 1.68 1.80 1.97 1.95 1.76 1.77 2.12 2.06 2.00 1.78 1.35 1.16 1.25 1.49 1.75 1.75 1.83 1.88 2.20 2.49
3.45 3.15 2.95 2.88 2.80 2.74 2.64 2.52 2.23 2.10 2.05 1.88 1.78 1.79 1.68 1.47 1.40 1.39 1.33 1.42 1.42 1.30 1.56 1.35 1.50 1.82 1.96 1.77 1.76 1.70 1.74 1.90 1.93 1.77 1.51 1.29 1.42 1.51 1.60 1.65 1.82 2.13 2.33
2.20 2.35 2.42 2.53 2.65 2.55 2.48 2.47 2.37 2.10 2.04 1.99 1.98 2.06 1.92 1.72 1.50 1.27 1.32 1.50 1.56 1.42 1.43 1.44 1.64 1.67 1.71 1.73 1.72 1.71 1.88 1.92 1.73 1.79 1.79 1.66 1.56 1.30 1.43 1.69 1.91 2.05 2.19
1.51 1.71 1.92 2.05 2.20 2.35 2.38 2.23 2.14 2.07 2.10 2.13 2.08 1.91 1.72 1.58 1.48 1.36 1.41 1.64 1.65 1.61 1.56 1.52 1.53 1.60 1.76 1.86 1.84 1.73 1.79 1.87 1.85 1.95 1.78 1.70 1.74 1.52 1.65 1.92 2.00 2.05 2.02